THOR ABLESTAR DEB, 327

Orbit data source: Space-Track

THOR ABLESTAR DEB, 327 is space debris in LEO originally from a launch on Thu, 29 Jun 1961 UTC launched from the Air Force Eastern Test Range (AFETR). Debris objects in space refer to the collection of defunct objects orbiting the Earth. Examples of debris include non-operational satellites, rocket bodies, and fragments generated from explosions, collisions, or faulty payload assembly.

Loading next visibility...
THOR ABLESTAR DEB details
Identifier
327, 1961-015DD
Orbit
LEO
Last TLE update9 hours ago
Origin
Flag of USUSAF SSD (US)
ManufacturerUnknown
MissionSpacecraft
Bus & MotorUnknown
MassUnknown
Launch date (UTC)
1961-06-29 (64 years ago)
Launch vehicleUnknown
Launch site
Air Force Eastern Test Range (AFETR)
Object type
Payload
Rocket body
Debris
Shape & HBRUnknown
Radar Cross SectionSmall (<0.1 m²)

Expand to show TLE details & history

TLE from 9 hours ago
0 THOR ABLESTAR DEB
1 00327U 61015DD  25014.92120951  .00000217  00000-0  22633-3 0  9995
2 00327  66.5409 226.5852 0106027 109.7574 251.4974 13.90553585214679
Epoch: 2025-01-14T22:06Z
Definitive object data (Epoch: 2025-01-14T22:06:32.501Z)
Latitude-0.00004°
Longitude140.32879°
Altitude954.064 km
Speed7.362 km/s
True Right ascension15h 06m 20s
True Declination0° 00' 00"
Sunlit
Object was in daylight at TLE epoch
Visualization TLE readout
Latitude-1.76593°
Longitude138.68041°
Altitude956.455 km
Speed7.36 km/s
Apparent Right ascension16h 42m 07s
Apparent Declination-22° 32' 33"
Sunlit
Object is in daylight
Visualization observer readout
Local Sidereal Time07:23:15
Azimuth75.174° E
Elevation-51.85°
Doppler factor1
Orbital elements
Apogee altitude1,002.549 km
Perigee altitude847.68 km
Semi-major axis7,303.252 km
Eccentricity0.0106027
Inclination66.5409°
RAAN226.5852°
Arg. of periapsis109.7574°
True anomaly250.35013°
Mean anomaly251.4974°
Eccentric anomaly250.92327°
Mean motion3.47751 °/min
BSTAR0.00022633
Orbital period103.52 mins
Loading maneuver chart data...

THOR ABLESTAR DEB Visibility forecast

Observer location: undefined°, undefined

Span
Click to sort rows by Start time (UTC) header in descending order
Start Az.
Max El. time (UTC)
Max El. Az.
Max El.
End time (UTC)
End Az.
11 mins2025-01-15 15:28:50.037Z202.408° SSW2025-01-15 15:34:50.037Z103.724° ESE44.408°2025-01-15 15:39:50.037Z32.444° NE
7 mins2025-01-15 17:18:50.037Z280.6° WNW2025-01-15 17:21:50.037Z316.223° NNW18.334°2025-01-15 17:25:50.037Z0.829° NNE
4 mins2025-01-15 22:49:50.037Z26.882° NE2025-01-15 22:50:50.037Z38.588° NE13.962°2025-01-15 22:53:50.037Z71.085° E
10 mins2025-01-16 00:33:50.037Z334.808° NNW2025-01-16 00:37:50.037Z13.106° NNE43.388°2025-01-16 00:43:50.037Z146.056° SSE
4 mins2025-01-16 02:22:50.037Z270.37° WNW2025-01-16 02:23:50.037Z258.836° W14.003°2025-01-16 02:26:50.037Z226.407° WSW
|